BAW2158 TLPL-TTCP

Flight info

Callsign BAW2158
Flight time 0h 47m
Altitude 20000
Route KOBAK DCT GOTER DCT PIBNA
Aircraft B772/H-SDE2E3FGHIJ5LORVWXY/LB1D1

Departure

Time 2026-04-25 00:06
Airport Hewanorra International Airport (TLPL)

Arrival

Time 2026-04-25 00:53
Airport A.N.R. Robinson International Airport (TTCP)
Time Latitude Longitude Altitude Speed Heading
2026-04-24 23:39 13.73606 -60.95138 25 ft 0 kts 20°
2026-04-24 23:39 13.73638 -60.94766 23 ft 0 kts 92°
2026-04-24 23:58 13.73638 -60.94773 21 ft 4 kts 92°
2026-04-24 23:58 13.73639 -60.94800 23 ft 4 kts 91°
2026-04-24 23:58 13.73639 -60.94821 25 ft 0 kts 91°
2026-04-25 00:01 13.73628 -60.94801 25 ft 7 kts 137°
2026-04-25 00:02 13.73572 -60.94826 25 ft 14 kts 233°
2026-04-25 00:02 13.73517 -60.94940 21 ft 22 kts 266°
2026-04-25 00:02 13.73516 -60.95077 21 ft 10 kts 270°
2026-04-25 00:02 13.73516 -60.95085 21 ft 0 kts 269°
2026-04-25 00:03 13.73512 -60.95116 23 ft 8 kts 252°
2026-04-25 00:03 13.73447 -60.95154 23 ft 14 kts 187°
2026-04-25 00:03 13.73346 -60.95198 20 ft 19 kts 247°
2026-04-25 00:03 13.73337 -60.95382 25 ft 33 kts 270°
2026-04-25 00:04 13.73337 -60.95662 26 ft 41 kts 270°
2026-04-25 00:04 13.73337 -60.95944 26 ft 38 kts 270°
2026-04-25 00:04 13.73336 -60.96210 25 ft 34 kts 270°
2026-04-25 00:04 13.73336 -60.96417 20 ft 28 kts 270°
2026-04-25 00:05 13.73338 -60.96525 19 ft 11 kts 317°
2026-04-25 00:05 13.73359 -60.96498 19 ft 7 kts 118°
2026-04-25 00:05 13.73340 -60.96454 25 ft 7 kts 105°
2026-04-25 00:05 13.73337 -60.96395 20 ft 11 kts 88°
2026-04-25 00:06 13.73338 -60.96246 25 ft 46 kts 90°
2026-04-25 00:06 13.73340 -60.95621 27 ft 126 kts 90°
2026-04-25 00:06 13.73371 -60.94580 493 ft 155 kts 90°
2026-04-25 00:06 13.73385 -60.93402 1230 ft 176 kts 92°
2026-04-25 00:07 13.73397 -60.92051 1812 ft 194 kts 89°
2026-04-25 00:07 13.73409 -60.90693 2376 ft 185 kts 89°
2026-04-25 00:07 13.73423 -60.89390 2923 ft 184 kts 90°
2026-04-25 00:07 13.73450 -60.88053 3493 ft 189 kts 90°
2026-04-25 00:08 13.73476 -60.86665 4074 ft 197 kts 93°
2026-04-25 00:08 13.72990 -60.85346 4591 ft 206 kts 133°
2026-04-25 00:08 13.71694 -60.84705 5089 ft 213 kts 170°
2026-04-25 00:08 13.70210 -60.84548 5714 ft 217 kts 170°
2026-04-25 00:09 13.68691 -60.84341 6266 ft 222 kts 168°
2026-04-25 00:09 13.67174 -60.84117 6812 ft 221 kts 168°
2026-04-25 00:09 13.65598 -60.83871 7356 ft 244 kts 169°
2026-04-25 00:09 13.63829 -60.83587 7900 ft 269 kts 169°
2026-04-25 00:10 13.61942 -60.83280 8418 ft 277 kts 170°
2026-04-25 00:10 13.60010 -60.82964 8918 ft 284 kts 171°
2026-04-25 00:10 13.58031 -60.82783 9418 ft 287 kts 181°
2026-04-25 00:10 13.56022 -60.82940 9931 ft 292 kts 187°
2026-04-25 00:11 13.53995 -60.83193 10396 ft 295 kts 188°
2026-04-25 00:11 13.51964 -60.83457 10855 ft 293 kts 187°
2026-04-25 00:11 13.49898 -60.83718 11172 ft 313 kts 187°
2026-04-25 00:11 13.47625 -60.83993 11497 ft 341 kts 187°
2026-04-25 00:12 13.45220 -60.84273 12320 ft 352 kts 186°
2026-04-25 00:12 13.42769 -60.84549 13344 ft 358 kts 186°
2026-04-25 00:12 13.40287 -60.84824 14389 ft 360 kts 186°
2026-04-25 00:12 13.37809 -60.85094 15361 ft 364 kts 186°
2026-04-25 00:13 13.35259 -60.85372 16273 ft 371 kts 186°
2026-04-25 00:13 13.32687 -60.85650 17383 ft 372 kts 186°
2026-04-25 00:13 13.30112 -60.85928 18464 ft 371 kts 186°
2026-04-25 00:13 13.27564 -60.86204 19152 ft 366 kts 186°
2026-04-25 00:14 13.25015 -60.86479 19765 ft 370 kts 186°
2026-04-25 00:14 13.22462 -60.86755 19985 ft 373 kts 186°
2026-04-25 00:14 13.19788 -60.87045 19981 ft 397 kts 186°
2026-04-25 00:14 13.17083 -60.87338 19960 ft 396 kts 186°
2026-04-25 00:15 13.14329 -60.87635 19978 ft 399 kts 186°
2026-04-25 00:15 13.11550 -60.87925 19977 ft 402 kts 185°
2026-04-25 00:15 13.08752 -60.88147 19974 ft 403 kts 184°
2026-04-25 00:15 13.05940 -60.88332 19977 ft 405 kts 184°
2026-04-25 00:16 13.03133 -60.88507 19981 ft 404 kts 184°
2026-04-25 00:16 13.00337 -60.88682 19966 ft 402 kts 184°
2026-04-25 00:16 12.97546 -60.88860 19963 ft 402 kts 184°
2026-04-25 00:16 12.94742 -60.89042 19980 ft 404 kts 184°
2026-04-25 00:17 12.91964 -60.89219 19978 ft 404 kts 184°
2026-04-25 00:17 12.89129 -60.89405 19963 ft 403 kts 184°
2026-04-25 00:17 12.86331 -60.89592 19970 ft 403 kts 184°
2026-04-25 00:17 12.83570 -60.89779 19979 ft 402 kts 184°
2026-04-25 00:18 12.80785 -60.89969 19966 ft 401 kts 184°
2026-04-25 00:18 12.78000 -60.90158 19959 ft 402 kts 184°
2026-04-25 00:18 12.75210 -60.90342 19977 ft 402 kts 184°
2026-04-25 00:18 12.72416 -60.90528 19975 ft 402 kts 184°
2026-04-25 00:19 12.69621 -60.90716 19971 ft 402 kts 184°
2026-04-25 00:19 12.66821 -60.90906 19976 ft 403 kts 184°
2026-04-25 00:19 12.64021 -60.91097 19979 ft 402 kts 184°
2026-04-25 00:19 12.61259 -60.91286 19968 ft 402 kts 184°
2026-04-25 00:20 12.58464 -60.91478 19967 ft 402 kts 184°
2026-04-25 00:20 12.55670 -60.91669 19976 ft 402 kts 184°
2026-04-25 00:20 12.52874 -60.91860 19975 ft 402 kts 184°
2026-04-25 00:20 12.50085 -60.92051 19961 ft 402 kts 184°
2026-04-25 00:21 12.47290 -60.92242 19957 ft 402 kts 184°
2026-04-25 00:21 12.44489 -60.92433 19974 ft 402 kts 184°
2026-04-25 00:21 12.41696 -60.92624 19961 ft 402 kts 184°
2026-04-25 00:21 12.38908 -60.92814 19963 ft 402 kts 184°
2026-04-25 00:22 12.36144 -60.93002 19977 ft 402 kts 184°
2026-04-25 00:22 12.33338 -60.93194 19976 ft 402 kts 184°
2026-04-25 00:22 12.30543 -60.93384 19971 ft 402 kts 184°
2026-04-25 00:22 12.27741 -60.93575 19968 ft 402 kts 184°
2026-04-25 00:23 12.24951 -60.93765 19974 ft 402 kts 184°
2026-04-25 00:23 12.22161 -60.93956 19973 ft 401 kts 184°
2026-04-25 00:23 12.19372 -60.94146 19962 ft 402 kts 184°
2026-04-25 00:23 12.16598 -60.94335 19959 ft 393 kts 184°
2026-04-25 00:24 12.13880 -60.94519 19574 ft 393 kts 183°
2026-04-25 00:24 12.11159 -60.94704 19090 ft 390 kts 183°
2026-04-25 00:24 12.08459 -60.94888 18583 ft 387 kts 183°
2026-04-25 00:24 12.05812 -60.95068 18014 ft 385 kts 183°
2026-04-25 00:25 12.03150 -60.95250 17436 ft 382 kts 183°
2026-04-25 00:25 12.00503 -60.95430 16885 ft 379 kts 183°
2026-04-25 00:25 11.97880 -60.95608 16352 ft 376 kts 183°
2026-04-25 00:25 11.95275 -60.95785 15814 ft 374 kts 183°
2026-04-25 00:26 11.92684 -60.95961 15289 ft 372 kts 183°
2026-04-25 00:26 11.90110 -60.96136 14778 ft 370 kts 183°
2026-04-25 00:26 11.87544 -60.96310 14238 ft 369 kts 183°
2026-04-25 00:26 11.84981 -60.96485 13697 ft 368 kts 183°
2026-04-25 00:27 11.82431 -60.96659 13117 ft 367 kts 183°
2026-04-25 00:27 11.79890 -60.96832 12551 ft 365 kts 183°
2026-04-25 00:27 11.77396 -60.97003 12032 ft 362 kts 183°
2026-04-25 00:27 11.74893 -60.97173 11505 ft 360 kts 183°
2026-04-25 00:28 11.72402 -60.97344 10982 ft 357 kts 183°
2026-04-25 00:28 11.69924 -60.97513 10516 ft 353 kts 182°
2026-04-25 00:28 11.67511 -60.97677 10357 ft 340 kts 182°
2026-04-25 00:28 11.65188 -60.97835 10199 ft 328 kts 182°
2026-04-25 00:29 11.62953 -60.97987 10063 ft 316 kts 181°
2026-04-25 00:29 11.60792 -60.98132 9851 ft 308 kts 182°
2026-04-25 00:29 11.58685 -60.98275 9626 ft 300 kts 182°
2026-04-25 00:29 11.56627 -60.98413 9400 ft 292 kts 182°
2026-04-25 00:30 11.54643 -60.98548 9027 ft 290 kts 181°
2026-04-25 00:30 11.52593 -60.98686 8513 ft 295 kts 181°
2026-04-25 00:30 11.50596 -60.98823 8149 ft 280 kts 181°
2026-04-25 00:30 11.48677 -60.98954 7737 ft 274 kts 181°
2026-04-25 00:31 11.46779 -60.99083 7404 ft 273 kts 181°
2026-04-25 00:31 11.44880 -60.99212 7077 ft 273 kts 180°
2026-04-25 00:31 11.42987 -60.99341 6742 ft 273 kts 180°
2026-04-25 00:31 11.41088 -60.99470 6425 ft 273 kts 180°
2026-04-25 00:32 11.39194 -60.99600 6072 ft 273 kts 180°
2026-04-25 00:32 11.37324 -60.99729 5741 ft 272 kts 180°
2026-04-25 00:32 11.35442 -60.99860 5411 ft 271 kts 180°
2026-04-25 00:32 11.34172 -60.99948 5189 ft 270 kts 180°
2026-04-25 00:33 11.31688 -61.00113 4775 ft 268 kts 179°
2026-04-25 00:33 11.30459 -61.00194 4578 ft 266 kts 179°
2026-04-25 00:33 11.28622 -61.00315 4274 ft 263 kts 179°
2026-04-25 00:33 11.26803 -61.00434 3970 ft 260 kts 179°
2026-04-25 00:34 11.25018 -61.00621 3862 ft 251 kts 183°
2026-04-25 00:34 11.23339 -61.00869 3670 ft 244 kts 184°
2026-04-25 00:34 11.21672 -61.01114 3361 ft 240 kts 183°
2026-04-25 00:34 11.20045 -61.01348 3070 ft 230 kts 182°
2026-04-25 00:35 11.18511 -61.01547 2777 ft 211 kts 175°
2026-04-25 00:35 11.17225 -61.01126 2433 ft 186 kts 136°
2026-04-25 00:35 11.16375 -61.00179 2167 ft 178 kts 119°
2026-04-25 00:35 11.16084 -60.99000 1911 ft 173 kts 89°
2026-04-25 00:36 11.16046 -60.97780 1810 ft 173 kts 92°
2026-04-25 00:36 11.15961 -60.96549 1793 ft 172 kts 94°
2026-04-25 00:36 11.15870 -60.95386 1723 ft 158 kts 94°
2026-04-25 00:36 11.15779 -60.94299 1726 ft 152 kts 94°
2026-04-25 00:37 11.15699 -60.93231 1694 ft 151 kts 94°
2026-04-25 00:37 11.15620 -60.92174 1481 ft 146 kts 94°
2026-04-25 00:37 11.15547 -60.91171 1326 ft 138 kts 93°
2026-04-25 00:37 11.15477 -60.90221 1139 ft 137 kts 92°
2026-04-25 00:38 11.15407 -60.89261 963 ft 133 kts 93°
2026-04-25 00:38 11.15341 -60.88346 792 ft 127 kts 92°
2026-04-25 00:38 11.15277 -60.87458 637 ft 124 kts 91°
2026-04-25 00:38 11.15212 -60.86557 498 ft 130 kts 92°
2026-04-25 00:39 11.15157 -60.85658 338 ft 125 kts 95°
2026-04-25 00:39 11.15085 -60.84764 174 ft 128 kts 95°
2026-04-25 00:39 11.15019 -60.83879 95 ft 131 kts 95°
2026-04-25 00:39 11.14933 -60.82805 408 ft 164 kts 95°
2026-04-25 00:40 11.14870 -60.81621 778 ft 162 kts 94°
2026-04-25 00:40 11.14826 -60.80560 960 ft 142 kts 94°
2026-04-25 00:40 11.14780 -60.79525 1151 ft 156 kts 95°
2026-04-25 00:40 11.14713 -60.78319 1369 ft 184 kts 94°
2026-04-25 00:41 11.14636 -60.76984 1746 ft 193 kts 94°
2026-04-25 00:41 11.14537 -60.75576 2113 ft 203 kts 101°
2026-04-25 00:41 11.13937 -60.74303 2429 ft 207 kts 131°
2026-04-25 00:41 11.12728 -60.73479 2796 ft 214 kts 157°
2026-04-25 00:42 11.11211 -60.73321 3007 ft 229 kts 186°
2026-04-25 00:42 11.09753 -60.74024 3010 ft 239 kts 220°
2026-04-25 00:42 11.08865 -60.75468 3002 ft 246 kts 253°
2026-04-25 00:42 11.08878 -60.77187 3003 ft 245 kts 290°
2026-04-25 00:43 11.09807 -60.78609 3019 ft 243 kts 316°
2026-04-25 00:43 11.11042 -60.79819 3015 ft 248 kts 319°
2026-04-25 00:43 11.12297 -60.81022 3002 ft 245 kts 318°
2026-04-25 00:43 11.13515 -60.82211 2998 ft 241 kts 317°
2026-04-25 00:44 11.14639 -60.83456 3003 ft 239 kts 307°
2026-04-25 00:44 11.15594 -60.84864 3013 ft 248 kts 304°
2026-04-25 00:44 11.16570 -60.86306 2995 ft 246 kts 308°
2026-04-25 00:44 11.17590 -60.87678 2871 ft 240 kts 307°
2026-04-25 00:45 11.18491 -60.89083 2713 ft 234 kts 302°
2026-04-25 00:45 11.19314 -60.90487 2542 ft 228 kts 301°
2026-04-25 00:45 11.20113 -60.91869 2389 ft 225 kts 301°
2026-04-25 00:45 11.20879 -60.93257 2250 ft 225 kts 294°
2026-04-25 00:46 11.21300 -60.94795 2129 ft 228 kts 278°
2026-04-25 00:46 11.21534 -60.96398 1989 ft 227 kts 276°
2026-04-25 00:46 11.21942 -60.99524 1794 ft 220 kts 286°
2026-04-25 00:47 11.22421 -61.00991 1734 ft 215 kts 289°
2026-04-25 00:47 11.22620 -61.02432 1724 ft 203 kts 252°
2026-04-25 00:47 11.21827 -61.03547 1741 ft 195 kts 202°
2026-04-25 00:47 11.20549 -61.03864 1735 ft 190 kts 177°
2026-04-25 00:48 11.19248 -61.03777 1729 ft 186 kts 162°
2026-04-25 00:48 11.18135 -61.03222 1724 ft 174 kts 139°
2026-04-25 00:48 11.17296 -61.02368 1726 ft 169 kts 121°
2026-04-25 00:48 11.16655 -61.01367 1715 ft 169 kts 126°
2026-04-25 00:49 11.15958 -61.00434 1731 ft 167 kts 107°
2026-04-25 00:49 11.15947 -60.99276 1735 ft 165 kts 83°
2026-04-25 00:49 11.15970 -60.98105 1751 ft 166 kts 91°
2026-04-25 00:49 11.15936 -60.96941 1734 ft 167 kts 92°
2026-04-25 00:50 11.15872 -60.95765 1724 ft 166 kts 94°
2026-04-25 00:50 11.15793 -60.94604 1715 ft 162 kts 94°
2026-04-25 00:50 11.15712 -60.93469 1699 ft 159 kts 94°
2026-04-25 00:50 11.15631 -60.92348 1511 ft 156 kts 94°
2026-04-25 00:51 11.15552 -60.91273 1335 ft 151 kts 93°
2026-04-25 00:51 11.15477 -60.90215 1122 ft 147 kts 94°
2026-04-25 00:51 11.15403 -60.89207 960 ft 139 kts 94°
2026-04-25 00:51 11.15332 -60.88243 773 ft 137 kts 92°
2026-04-25 00:52 11.15263 -60.87273 609 ft 138 kts 93°
2026-04-25 00:52 11.15192 -60.86308 446 ft 135 kts 93°
2026-04-25 00:52 11.15136 -60.85379 237 ft 130 kts 92°
2026-04-25 00:52 11.15065 -60.84473 88 ft 127 kts 92°
2026-04-25 00:53 11.15000 -60.83576 42 ft 123 kts 95°
2026-04-25 00:53 11.14948 -60.82881 41 ft 72 kts 95°
2026-04-25 00:53 11.14912 -60.82418 40 ft 61 kts 94°
2026-04-25 00:53 11.14891 -60.82079 40 ft 24 kts 86°
2026-04-25 00:54 11.14862 -60.82004 39 ft 8 kts 163°
2026-04-25 00:54 11.14842 -60.82034 39 ft 6 kts 278°
2026-04-25 00:54 11.14875 -60.82108 39 ft 20 kts 288°
2026-04-25 00:54 11.14902 -60.82298 40 ft 34 kts 273°
2026-04-25 00:55 11.14918 -60.82560 36 ft 36 kts 274°
2026-04-25 00:55 11.14938 -60.82806 42 ft 35 kts 275°
2026-04-25 00:55 11.14959 -60.83068 41 ft 39 kts 275°
2026-04-25 00:55 11.14981 -60.83363 41 ft 44 kts 274°
2026-04-25 00:56 11.15001 -60.83652 40 ft 36 kts 274°
2026-04-25 00:56 11.15053 -60.83819 37 ft 22 kts 318°
2026-04-25 00:56 11.15113 -60.83927 36 ft 12 kts 278°
2026-04-25 00:56 11.15123 -60.83994 34 ft 7 kts 301°
2026-04-25 00:57 11.15161 -60.84007 35 ft 6 kts 359°
2026-04-25 00:57 11.15183 -60.84005 35 ft 0 kts
2026-04-25 00:57 11.15185 -60.84005 35 ft 1 kts
2026-04-25 00:57 11.15186 -60.84005 35 ft 0 kts